Find Starlink 31491

NORAD ID: 59011 Int'l Des: 2024-036 Owner: SPXS Country: US Constellation: starlink operational
LEOCIRCULAR

实时位置

正在加载3D地球...

关于 Starlink 31491

正在加载描述...

即将过境

Passes for default location (London). Set your location on the main map for personalized predictions.

高度历史

Loading altitude history...

两行轨道根数

1 59011U 24036P 26126.33481994 .00002521 00000-0 97267-4 0 9994
2 59011 53.1590 170.7450 0000915 69.2273 290.8826 15.30182082124146
Epoch: May 6, 2026 • Age: 19 hours

当前状态

高度 479.1 km
速度 7.63 km/s
星下点 42.96°N, 27.43°E
发射日期 Feb 23, 2024
运行时间 2.1 years
类型 internet

技术详情

分类 Payload
质量 730.00 kg
干质量 700.00 kg
总质量 730.00 kg
长度 0.30 m
直径 4.10 m
跨度 29.00 m
形状 Box + pan
制造商 SPXS
平台类型 Starlink V2M
阶段状态 In Orbit
所有者/国家 SPXS/US

Most Searched